JES3046 SAZS-SABE

Flight info

Callsign JES3046
Flight time N/A
Altitude 37000
Route LIMAY2C LIMAY UW26 EGUNO UZ109 ISMIL UT655 ASADA ASADA9R
Aircraft A21N/M-SDE2E3FGHIRWXY/LB1

Departure

Time 2026-04-28 22:47
Airport Teniente Luis Candelaria International Airport (SAZS)

Arrival

Time N/A
Airport Aeroparque Jorge Newbery (SABE)
Time Latitude Longitude Altitude Speed Heading
2026-04-28 22:02 -41.14668 -71.16190 2749 ft 0 kts 26°
2026-04-28 22:32 -41.14668 -71.16191 2749 ft 1 kts 26°
2026-04-28 22:32 -41.14690 -71.16206 2752 ft 4 kts 33°
2026-04-28 22:32 -41.14712 -71.16227 2753 ft 4 kts 43°
2026-04-28 22:32 -41.14731 -71.16252 2751 ft 4 kts 55°
2026-04-28 22:33 -41.14744 -71.16282 2754 ft 4 kts 81°
2026-04-28 22:33 -41.14745 -71.16307 2754 ft 0 kts 116°
2026-04-28 22:36 -41.14749 -71.16298 2752 ft 4 kts 116°
2026-04-28 22:36 -41.14775 -71.16245 2750 ft 10 kts 128°
2026-04-28 22:37 -41.14819 -71.16140 2750 ft 16 kts 114°
2026-04-28 22:37 -41.14868 -71.16004 2750 ft 14 kts 115°
2026-04-28 22:37 -41.14908 -71.15892 2750 ft 12 kts 114°
2026-04-28 22:37 -41.14931 -71.15825 2751 ft 11 kts 114°
2026-04-28 22:38 -41.14951 -71.15765 2753 ft 10 kts 114°
2026-04-28 22:39 -41.15077 -71.15409 2749 ft 11 kts 115°
2026-04-28 22:39 -41.15106 -71.15321 2749 ft 10 kts 115°
2026-04-28 22:39 -41.15137 -71.15235 2749 ft 10 kts 115°
2026-04-28 22:39 -41.15167 -71.15148 2751 ft 11 kts 115°
2026-04-28 22:40 -41.15199 -71.15057 2749 ft 11 kts 115°
2026-04-28 22:40 -41.15233 -71.14961 2749 ft 12 kts 115°
2026-04-28 22:40 -41.15268 -71.14860 2750 ft 12 kts 114°
2026-04-28 22:40 -41.15304 -71.14753 2750 ft 13 kts 114°
2026-04-28 22:41 -41.15343 -71.14639 2751 ft 14 kts 114°
2026-04-28 22:41 -41.15382 -71.14526 2750 ft 10 kts 114°
2026-04-28 22:41 -41.15422 -71.14474 2751 ft 7 kts 156°
2026-04-28 22:41 -41.15445 -71.14474 2749 ft 2 kts 186°
2026-04-28 22:42 -41.15454 -71.14478 2750 ft 1 kts 199°
2026-04-28 22:42 -41.15456 -71.14479 2750 ft 0 kts 201°
2026-04-28 22:46 -41.15489 -71.14498 2752 ft 11 kts 205°
2026-04-28 22:46 -41.15528 -71.14571 2750 ft 10 kts 275°
2026-04-28 22:46 -41.15522 -71.14593 2750 ft 0 kts 290°
2026-04-28 22:46 -41.15497 -71.14670 2752 ft 36 kts 296°
2026-04-28 22:47 -41.15285 -71.15282 2751 ft 110 kts 294°
2026-04-28 22:47 -41.14862 -71.16487 2776 ft 176 kts 295°
2026-04-28 22:47 -41.14273 -71.18144 3158 ft 217 kts 295°
2026-04-28 22:47 -41.13515 -71.19877 4299 ft 212 kts 299°
2026-04-28 22:48 -41.12880 -71.21627 5416 ft 216 kts 294°
2026-04-28 22:48 -41.12238 -71.23620 5763 ft 258 kts 292°
2026-04-28 22:48 -41.11513 -71.25898 6741 ft 270 kts 292°
2026-04-28 22:48 -41.10766 -71.28206 8067 ft 275 kts 296°
2026-04-28 22:49 -41.09583 -71.30203 9272 ft 281 kts 324°
2026-04-28 22:49 -41.07779 -71.31224 10431 ft 288 kts 353°
2026-04-28 22:49 -41.05750 -71.31021 11309 ft 305 kts 19°
2026-04-28 22:49 -41.03868 -71.29559 12043 ft 326 kts 44°
2026-04-28 22:50 -41.02543 -71.27035 12825 ft 345 kts 68°
2026-04-28 22:50 -41.01806 -71.23928 13653 ft 362 kts 75°
2026-04-28 22:50 -41.01204 -71.20621 14496 ft 378 kts 77°
2026-04-28 22:50 -41.00578 -71.17173 15363 ft 392 kts 75°
2026-04-28 22:51 -40.99804 -71.13648 16236 ft 404 kts 72°
2026-04-28 22:51 -40.98866 -71.10108 17311 ft 410 kts 69°
2026-04-28 22:51 -40.97796 -71.06579 18337 ft 417 kts 67°
2026-04-28 22:51 -40.96612 -71.03046 19305 ft 424 kts 65°
2026-04-28 22:52 -40.95326 -70.99501 20249 ft 430 kts 63°
2026-04-28 22:52 -40.93956 -70.95950 21061 ft 437 kts 62°
2026-04-28 22:52 -40.92507 -70.92372 21738 ft 444 kts 61°
2026-04-28 22:52 -40.91002 -70.88797 22522 ft 447 kts 60°
2026-04-28 22:53 -40.89448 -70.85217 23231 ft 452 kts 59°
2026-04-28 22:53 -40.87847 -70.81615 23866 ft 457 kts 59°
2026-04-28 22:53 -40.86199 -70.77988 24520 ft 462 kts 59°
2026-04-28 22:53 -40.84517 -70.74347 25163 ft 467 kts 58°
2026-04-28 22:54 -40.82803 -70.70687 25828 ft 470 kts 58°
2026-04-28 22:54 -40.81065 -70.67018 26503 ft 473 kts 58°
2026-04-28 22:54 -40.79307 -70.63342 27259 ft 473 kts 57°
2026-04-28 22:54 -40.77538 -70.59675 28014 ft 473 kts 57°
2026-04-28 22:55 -40.75764 -70.56022 28766 ft 472 kts 57°
2026-04-28 22:55 -40.73987 -70.52386 29532 ft 471 kts 57°
2026-04-28 22:55 -40.72211 -70.48771 30276 ft 469 kts 57°
2026-04-28 22:55 -40.70436 -70.45173 30980 ft 468 kts 57°
2026-04-28 22:56 -40.68661 -70.41591 31697 ft 466 kts 57°
2026-04-28 22:56 -40.66886 -70.38022 32313 ft 466 kts 57°
2026-04-28 22:56 -40.65107 -70.34458 32909 ft 465 kts 56°
2026-04-28 22:56 -40.63327 -70.30903 33529 ft 464 kts 56°
2026-04-28 22:57 -40.61553 -70.27369 34156 ft 462 kts 56°
2026-04-28 22:57 -40.59787 -70.23859 34749 ft 460 kts 56°
2026-04-28 22:57 -40.58020 -70.20357 35327 ft 458 kts 56°
2026-04-28 22:57 -40.56259 -70.16874 35850 ft 457 kts 56°
2026-04-28 22:58 -40.54496 -70.13393 36290 ft 457 kts 56°
2026-04-28 22:58 -40.52734 -70.09920 36676 ft 454 kts 56°
2026-04-28 22:58 -40.50990 -70.06489 36857 ft 451 kts 56°
2026-04-28 22:59 -40.47474 -69.99589 36975 ft 458 kts 56°
2026-04-28 22:59 -40.43911 -69.92613 36991 ft 459 kts 56°
2026-04-28 23:00 -40.40370 -69.85699 36996 ft 454 kts 56°
2026-04-28 23:00 -40.36821 -69.78786 36999 ft 460 kts 56°
2026-04-28 23:01 -40.33242 -69.71832 36997 ft 459 kts 56°
2026-04-28 23:01 -40.29682 -69.64928 36999 ft 457 kts 56°
2026-04-28 23:02 -40.26114 -69.58026 37000 ft 458 kts 56°
2026-04-28 23:02 -40.22534 -69.51114 36998 ft 459 kts 56°
2026-04-28 23:03 -40.19943 -69.46123 36998 ft 457 kts 56°
2026-04-28 23:03 -40.16371 -69.39252 36999 ft 456 kts 56°
2026-04-28 23:04 -40.12790 -69.32380 37000 ft 457 kts 56°
2026-04-28 23:04 -40.07435 -69.22129 36999 ft 457 kts 56°
2026-04-28 23:05 -40.03855 -69.15295 37000 ft 455 kts 55°
2026-04-28 23:05 -40.00281 -69.08486 37001 ft 456 kts 55°
2026-04-28 23:06 -39.96689 -69.01658 36999 ft 457 kts 55°
2026-04-28 23:06 -39.93097 -68.94843 36999 ft 455 kts 55°
2026-04-28 23:07 -39.89514 -68.88060 37000 ft 454 kts 55°
2026-04-28 23:07 -39.85925 -68.81280 37001 ft 455 kts 55°
2026-04-28 23:08 -39.82327 -68.74497 36999 ft 455 kts 55°
2026-04-28 23:08 -39.78735 -68.67738 37000 ft 453 kts 55°
2026-04-28 23:09 -39.75145 -68.60997 37001 ft 454 kts 55°
2026-04-28 23:09 -39.71544 -68.54249 37000 ft 455 kts 55°
2026-04-28 23:10 -39.67929 -68.47490 37000 ft 456 kts 55°
2026-04-28 23:10 -39.64313 -68.40742 36999 ft 455 kts 55°
2026-04-28 23:11 -39.60703 -68.34020 37000 ft 454 kts 55°
2026-04-28 23:11 -39.57088 -68.27302 37001 ft 455 kts 55°
2026-04-28 23:12 -39.53459 -68.20571 37000 ft 456 kts 55°
2026-04-28 23:12 -39.49824 -68.13844 36999 ft 455 kts 55°
2026-04-28 23:13 -39.46198 -68.07148 37000 ft 454 kts 55°
2026-04-28 23:13 -39.42567 -68.00455 37000 ft 455 kts 54°
2026-04-28 23:14 -39.38931 -67.93767 37000 ft 454 kts 54°
2026-04-28 23:14 -39.35300 -67.87103 36999 ft 452 kts 54°
2026-04-28 23:15 -39.31676 -67.80465 37001 ft 452 kts 54°
2026-04-28 23:15 -39.28071 -67.73875 37001 ft 453 kts 54°
2026-04-28 23:16 -39.24433 -67.67239 36999 ft 452 kts 54°
2026-04-28 23:16 -39.20800 -67.60623 37000 ft 452 kts 54°
2026-04-28 23:17 -39.17160 -67.54010 37001 ft 454 kts 54°
2026-04-28 23:17 -39.13498 -67.47370 37000 ft 454 kts 54°
2026-04-28 23:18 -39.09849 -67.40767 36999 ft 451 kts 54°
2026-04-28 23:18 -39.06211 -67.34197 37001 ft 451 kts 54°
2026-04-28 23:19 -39.02557 -67.27612 37000 ft 453 kts 54°
2026-04-28 23:19 -38.98895 -67.21026 37000 ft 453 kts 54°
2026-04-28 23:20 -38.95232 -67.14451 37000 ft 452 kts 54°
2026-04-28 23:20 -38.91577 -67.07902 37001 ft 452 kts 54°
2026-04-28 23:21 -38.88515 -67.02427 37001 ft 453 kts 54°
2026-04-28 23:21 -38.85458 -66.96970 36999 ft 452 kts 54°